�N����,����,�~����,�C��,���x,�C��,����,���ϕ���,�ő�u�ԕ���,�ő厞����,���˗�,�I�_���x,�n�����x,�ő啗���N��,DTYPE
"22/05/17","00:10",0.0,15.0,80.9,1008.3,329.8,2.0,3.1,326.6,0.00,11.8,17.4,"00:00:32",1
"22/05/17","00:20",0.0,15.1,81.1,1008.3,329.8,2.2,3.9,317.0,0.00,11.9,17.4,"00:17:28",1
"22/05/17","00:30",0.0,15.2,80.8,1008.1,332.6,2.1,3.3,343.4,0.00,12.0,17.4,"00:20:40",1
"22/05/17","00:40",0.0,15.1,80.7,1008.1,334.4,1.8,2.9,344.8,0.00,11.9,17.4,"00:32:40",1
"22/05/17","00:50",0.0,15.0,80.5,1008.8,305.6,2.3,3.4,325.7,0.00,11.7,17.2,"00:46:58",1
"22/05/17","01:00",0.0,15.0,80.7,1008.8,327.9,2.3,4.1,339.6,0.00,11.8,17.1,"00:56:40",1
"22/05/17","01:10",0.0,14.9,81.1,1008.6,326.1,2.1,3.2,334.8,0.00,11.7,17.3,"01:08:56",1
"22/05/17","01:20",0.0,15.0,81.3,1008.3,324.6,2.6,3.6,316.2,0.00,11.9,17.1,"01:18:32",1
"22/05/17","01:30",0.0,14.9,81.4,1008.8,319.4,1.5,2.2,331.7,0.00,11.8,17.4,"01:20:24",1
"22/05/17","01:40",0.0,14.7,81.9,1008.6,283.0,1.5,2.0,291.4,0.00,11.7,17.2,"01:34:24",1
"22/05/17","01:50",0.0,14.7,82.6,1008.8,322.1,2.0,3.2,333.6,0.00,11.8,17.2,"01:47:04",1
"22/05/17","02:00",0.0,14.4,83.0,1008.8,318.0,1.1,3.3,326.9,0.00,11.6,17.3,"01:50:48",1
"22/05/17","02:10",0.0,14.3,83.7,1008.3,319.5,1.7,3.3,326.4,0.00,11.6,17.0,"02:08:16",1
"22/05/17","02:20",0.0,14.3,84.2,1008.1,324.5,2.6,3.5,341.3,0.00,11.7,17.2,"02:13:28",1
"22/05/17","02:30",0.0,14.3,84.4,1008.1,322.5,2.3,3.2,322.0,0.00,11.7,17.2,"02:21:52",1
"22/05/17","02:40",0.0,14.2,84.6,1008.3,322.0,1.8,3.3,326.9,0.00,11.7,17.2,"02:32:40",1
"22/05/17","02:50",0.0,14.1,85.0,1008.3,323.2,1.6,2.1,325.7,0.00,11.7,17.1,"02:45:20",1
"22/05/17","03:00",0.0,14.0,85.6,1009.0,330.0,2.1,3.2,325.1,0.00,11.7,17.1,"02:56:00",1
"22/05/17","03:10",0.0,14.0,86.0,1008.6,332.2,1.7,2.7,334.1,0.00,11.7,17.1,"03:09:54",1
"22/05/17","03:20",0.0,14.1,86.2,1008.8,331.1,2.7,4.4,338.6,0.00,11.9,17.0,"03:15:54",1
"22/05/17","03:30",0.0,14.2,86.1,1009.0,331.2,2.7,3.7,324.4,0.00,12.0,17.2,"03:29:32",1
"22/05/17","03:40",0.0,14.1,85.9,1008.6,326.4,2.3,2.9,328.9,0.00,11.8,16.9,"03:30:24",1
"22/05/17","03:50",0.0,14.1,85.8,1008.8,329.3,2.6,4.1,326.2,0.00,11.8,17.1,"03:46:48",1
"22/05/17","04:00",0.0,14.0,85.8,1008.1,321.2,2.0,3.1,336.0,0.00,11.7,17.1,"03:56:00",1
"22/05/17","04:10",0.0,13.8,85.9,1008.3,309.0,1.7,2.8,297.7,0.00,11.5,16.8,"04:01:20",1
"22/05/17","04:20",0.0,13.6,86.1,1008.1,302.7,1.6,2.8,304.3,0.00,11.4,16.8,"04:10:56",1
"22/05/17","04:30",0.0,13.5,86.5,1008.3,309.1,1.3,2.4,320.3,0.00,11.3,16.8,"04:23:44",1
"22/05/17","04:40",0.0,13.5,87.0,1008.6,308.0,1.3,2.7,321.0,0.00,11.4,16.9,"04:39:38",1
"22/05/17","04:50",0.0,13.5,87.2,1009.0,308.3,2.0,2.8,331.0,0.00,11.5,17.1,"04:44:18",1
"22/05/17","05:00",0.0,13.6,87.3,1008.6,320.3,2.1,2.8,320.4,0.00,11.6,17.0,"04:52:40",1
"22/05/17","05:10",0.0,13.6,87.3,1008.6,316.9,1.2,2.5,328.0,0.00,11.6,16.7,"05:00:24",1
"22/05/17","05:20",0.0,13.5,87.5,1008.6,268.9,0.8,1.8,285.5,0.00,11.5,16.8,"05:18:56",1
"22/05/17","05:30",0.0,13.4,87.7,1008.8,303.8,2.0,2.7,307.7,0.00,11.4,16.8,"05:22:56",1
"22/05/17","05:40",0.0,13.4,87.9,1009.5,295.3,1.6,2.7,310.8,0.00,11.5,16.7,"05:38:58",1
"22/05/17","05:50",0.0,13.5,88.0,1009.3,300.2,1.5,3.2,320.3,0.00,11.6,16.9,"05:41:12",1
"22/05/17","06:00",0.0,13.5,88.1,1009.3,302.3,1.1,1.7,333.4,0.00,11.6,16.9,"05:59:36",1
"22/05/17","06:10",0.0,13.6,88.1,1008.8,337.2,1.7,4.3,322.4,0.00,11.7,16.9,"06:07:00",1
"22/05/17","06:20",0.0,13.8,88.1,1008.3,334.0,2.1,4.0,343.7,0.01,11.9,16.8,"06:13:32",1
"22/05/17","06:30",0.0,13.9,88.0,1008.8,317.3,1.8,2.7,336.7,0.01,12.0,16.7,"06:23:44",1
"22/05/17","06:40",0.0,14.1,87.5,1009.3,306.8,2.0,4.0,323.7,0.03,12.1,16.6,"06:39:44",1
"22/05/17","06:50",0.0,14.4,86.8,1009.0,336.2,2.1,3.6,340.5,0.01,12.3,16.6,"06:42:00",1
"22/05/17","07:00",0.0,14.5,86.2,1010.0,326.4,2.1,3.1,300.2,0.02,12.3,16.7,"06:58:08",1
"22/05/17","07:10",0.0,14.6,85.7,1009.5,327.5,2.2,3.9,340.7,0.02,12.3,16.6,"07:03:52",1
"22/05/17","07:20",0.0,14.6,85.4,1009.3,333.2,2.5,4.9,334.8,0.02,12.2,16.7,"07:10:32",1
"22/05/17","07:30",0.0,14.7,85.3,1010.0,322.2,2.2,3.9,325.5,0.04,12.3,16.7,"07:25:36",1
"22/05/17","07:40",0.0,14.9,85.2,1009.7,318.4,2.0,3.2,321.9,0.03,12.5,16.7,"07:31:20",1
"22/05/17","07:50",0.0,14.9,85.1,1010.0,331.3,1.8,3.1,345.4,0.03,12.5,16.6,"07:45:52",1
"22/05/17","08:00",0.0,15.0,85.1,1009.3,324.8,1.5,2.9,343.5,0.03,12.6,16.6,"07:50:16",1
"22/05/17","08:10",0.0,15.1,85.1,1009.5,323.1,1.8,2.9,334.1,0.05,12.7,16.6,"08:02:56",1
"22/05/17","08:20",0.0,15.3,84.9,1010.7,319.3,1.8,2.7,313.2,0.07,12.8,16.4,"08:12:08",1
"22/05/17","08:30",0.0,15.4,84.5,1010.4,322.9,1.7,2.9,343.0,0.04,12.8,16.6,"08:20:32",1
"22/05/17","08:40",0.0,15.4,84.4,1010.4,341.1,1.8,2.8,343.7,0.03,12.8,16.6,"08:36:00",1
"22/05/17","08:50",0.0,15.3,84.3,1010.2,329.6,2.1,3.7,327.4,0.04,12.7,16.6,"08:48:48",1
"22/05/17","09:00",0.0,15.4,84.2,1010.2,327.5,2.2,3.4,319.3,0.06,12.8,16.5,"08:55:52",1
"22/05/17","09:10",0.0,15.4,84.0,1010.2,314.7,2.1,2.8,336.2,0.05,12.8,16.5,"09:01:44",1
"22/05/17","09:20",0.0,15.5,84.2,1009.3,308.4,1.3,2.2,323.4,0.05,12.9,16.7,"09:10:48",1
"22/05/17","09:30",0.0,15.6,84.4,1010.0,313.5,1.7,3.2,322.1,0.07,13.0,16.6,"09:24:16",1
"22/05/17","09:40",0.0,16.2,84.5,1010.0,305.3,1.5,2.6,312.3,0.17,13.6,16.6,"09:39:44",1
"22/05/17","09:50",0.0,16.6,83.2,1010.0,312.4,1.3,3.1,327.4,0.12,13.8,16.5,"09:42:16",1
"22/05/17","10:00",0.0,16.8,82.2,1010.2,294.5,1.0,1.9,313.9,0.11,13.8,16.7,"09:54:00",1
"22/05/17","10:10",0.0,17.2,81.0,1010.4,289.7,0.6,1.4,332.5,0.13,14.0,16.6,"10:04:24",1
"22/05/17","10:20",0.0,17.1,79.2,1010.7,335.7,1.0,2.0,338.5,0.10,13.5,16.8,"10:19:04",1
"22/05/17","10:30",0.0,17.4,77.6,1010.7,327.5,1.0,2.2,344.5,0.12,13.5,16.7,"10:20:08",1
"22/05/17","10:40",0.0,17.6,75.7,1010.7,316.2,1.2,2.0,308.3,0.13,13.3,16.7,"10:31:04",1
"22/05/17","10:50",0.0,17.9,73.5,1010.7,350.5,0.7,1.8,350.4,0.14,13.1,16.7,"10:43:52",1
"22/05/17","11:00",0.0,18.2,72.5,1010.7,348.1,0.7,1.2,4.7,0.13,13.2,16.5,"10:58:16",1
"22/05/17","11:10",0.0,18.4,72.4,1010.2,352.7,0.7,1.7,339.9,0.15,13.4,16.7,"11:04:16",1
"22/05/17","11:20",0.0,18.7,72.8,1010.4,320.0,0.5,1.3,321.2,0.13,13.8,16.5,"11:12:00",1
"22/05/17","11:30",0.0,18.7,73.3,1010.4,257.2,0.2,1.1,349.9,0.13,13.9,16.8,"11:24:32",1
"22/05/17","11:40",0.0,18.7,73.2,1010.4,250.9,0.3,0.9,188.6,0.15,13.8,16.5,"11:31:20",1
"22/05/17","11:50",0.0,18.9,71.9,1010.4,318.5,0.7,2.0,343.0,0.15,13.8,16.8,"11:46:00",1
"22/05/17","12:00",0.0,19.5,70.3,1010.2,344.6,0.7,1.9,332.7,0.19,14.0,16.9,"11:53:12",1
"22/05/17","12:10",0.0,19.8,68.4,1010.2,338.7,1.1,2.8,344.6,0.20,13.9,16.8,"12:09:20",1
"22/05/17","12:20",0.0,19.6,68.0,1010.0,312.2,1.5,2.9,324.6,0.21,13.6,16.7,"12:13:44",1
"22/05/17","12:30",0.0,19.6,67.9,1010.0,301.4,1.2,3.2,322.0,0.20,13.6,16.7,"12:25:12",1
"22/05/17","12:40",0.0,19.7,67.3,1010.2,246.3,0.6,2.1,243.1,0.19,13.5,17.0,"12:30:40",1
"22/05/17","12:50",0.0,20.2,65.6,1010.0,27.9,0.6,1.6,38.5,0.27,13.6,16.7,"12:45:52",1
"22/05/17","13:00",0.0,21.3,63.6,1010.0,234.0,0.5,1.1,349.1,0.37,14.2,16.9,"12:50:08",1
"22/05/17","13:10",0.0,22.0,60.8,1009.5,303.9,0.6,1.6,261.3,0.43,14.1,16.8,"13:05:52",1
"22/05/17","13:20",0.0,22.5,57.5,1009.0,318.5,0.8,1.9,337.6,0.42,13.7,17.0,"13:15:28",1
"22/05/17","13:30",0.0,22.9,55.8,1008.8,1.2,1.1,2.6,348.6,0.51,13.7,16.8,"13:22:00",1
"22/05/17","13:40",0.0,22.8,53.9,1008.8,341.2,1.2,2.6,250.4,0.40,13.0,17.0,"13:39:36",1
"22/05/17","13:50",0.0,22.8,56.0,1008.6,192.3,1.0,3.2,223.5,0.41,13.6,17.2,"13:49:52",1
"22/05/17","14:00",0.0,22.2,56.9,1008.3,202.8,1.5,3.1,194.2,0.33,13.3,17.2,"13:55:36",1
"22/05/17","14:10",0.0,22.3,53.9,1008.8,235.5,1.1,2.8,200.4,0.33,12.6,17.1,"14:01:28",1
"22/05/17","14:20",0.0,22.0,53.5,1008.6,220.7,1.6,4.4,230.9,0.32,12.2,17.2,"14:17:52",1
"22/05/17","14:30",0.0,21.8,53.5,1008.3,158.1,1.5,2.9,208.2,0.29,12.0,17.3,"14:24:24",1
"22/05/17","14:40",0.0,22.2,52.7,1008.3,85.5,1.1,3.7,48.8,0.27,12.1,17.6,"14:32:48",1
"22/05/17","14:50",0.0,22.8,51.9,1008.3,113.4,0.7,1.8,126.7,0.35,12.5,17.2,"14:42:32",1
"22/05/17","15:00",0.0,23.0,50.1,1008.6,224.6,0.8,2.6,226.6,0.30,12.1,17.4,"14:54:08",1
"22/05/17","15:10",0.0,22.5,51.6,1008.6,205.0,1.6,3.2,128.8,0.27,12.1,17.3,"15:03:52",1
"22/05/17","15:20",0.0,22.4,52.9,1009.0,176.2,1.2,2.4,240.0,0.23,12.4,17.5,"15:11:28",1
"22/05/17","15:30",0.0,21.9,55.0,1008.6,138.8,1.5,3.5,137.6,0.20,12.5,17.5,"15:22:40",1
"22/05/17","15:40",0.0,22.2,52.9,1009.3,177.0,1.1,2.9,198.3,0.23,12.2,17.6,"15:39:12",1
"22/05/17","15:50",0.0,22.5,53.6,1009.3,172.2,0.8,2.0,153.3,0.24,12.7,17.7,"15:44:24",1
"22/05/17","16:00",0.0,22.2,52.2,1008.8,187.9,1.5,3.3,233.5,0.18,12.0,17.8,"15:57:52",1
"22/05/17","16:10",0.0,22.3,50.1,1009.3,220.8,1.5,2.9,227.5,0.20,11.5,17.7,"16:09:12",1
"22/05/17","16:20",0.0,22.2,51.4,1008.6,192.7,0.6,1.7,185.0,0.14,11.8,17.8,"16:10:16",1
"22/05/17","16:30",0.0,22.0,46.2,1009.0,224.9,1.3,3.1,227.9,0.14,10.0,17.7,"16:25:36",1
"22/05/17","16:40",0.0,21.9,44.3,1009.0,247.2,1.3,2.7,255.0,0.13,9.2,17.7,"16:33:12",1
"22/05/17","16:50",0.0,21.7,47.7,1009.3,233.4,1.2,2.5,231.6,0.08,10.2,17.8,"16:42:32",1
"22/05/17","17:00",0.0,21.7,49.7,1009.0,212.9,0.6,2.0,240.6,0.09,10.8,17.7,"16:51:04",1
"22/05/17","17:10",0.0,21.5,47.4,1009.3,264.2,0.7,2.1,242.6,0.07,9.9,17.8,"17:08:08",1
"22/05/17","17:20",0.0,21.3,48.0,1008.8,285.4,0.8,2.0,221.8,0.05,9.9,17.9,"17:10:40",1
"22/05/17","17:30",0.0,21.2,55.3,1008.8,349.8,1.2,1.9,335.6,0.05,11.9,17.9,"17:20:32",1
"22/05/17","17:40",0.0,20.6,56.1,1009.7,330.2,1.2,2.0,344.3,0.05,11.6,17.7,"17:36:32",1
"22/05/17","17:50",0.0,20.4,58.3,1008.8,338.5,1.2,2.0,312.8,0.03,12.0,17.8,"17:42:40",1
"22/05/17","18:00",0.0,19.9,59.7,1009.5,348.7,1.0,1.8,337.0,0.03,11.9,18.0,"17:52:40",1
"22/05/17","18:10",0.0,19.7,62.7,1008.8,304.3,0.8,1.4,350.9,0.03,12.4,17.9,"18:02:24",1
"22/05/17","18:20",0.0,19.4,64.2,1009.5,299.4,1.1,2.1,243.9,0.01,12.5,18.0,"18:13:12",1
"22/05/17","18:30",0.0,19.1,65.4,1009.5,325.2,2.0,2.6,324.4,0.01,12.5,18.0,"18:21:28",1
"22/05/17","18:40",0.0,18.8,66.3,1009.5,301.2,1.3,2.2,325.3,0.01,12.4,17.9,"18:39:04",1
"22/05/17","18:50",0.0,18.7,66.3,1010.0,304.4,1.6,2.4,298.6,0.00,12.3,18.0,"18:42:40",1
"22/05/17","19:00",0.0,18.4,66.6,1009.7,294.3,1.1,2.1,319.6,0.01,12.1,17.8,"18:57:36",1
"22/05/17","19:10",0.0,18.1,66.8,1010.2,317.6,1.5,2.7,329.7,0.00,11.9,17.9,"19:02:56",1
"22/05/17","19:20",0.0,18.0,67.4,1010.7,311.5,1.3,2.0,316.1,0.00,11.9,17.9,"19:10:40",1
"22/05/17","19:30",0.0,17.8,68.9,1010.9,328.7,1.8,2.6,327.5,0.00,12.1,18.0,"19:22:08",1
"22/05/17","19:40",0.0,17.3,70.5,1010.9,326.1,2.2,3.5,328.6,0.00,11.9,17.9,"19:35:44",1
"22/05/17","19:50",0.0,16.7,71.2,1010.9,285.9,1.1,1.8,306.5,0.00,11.5,17.9,"19:40:24",1
"22/05/17","20:00",0.0,16.3,72.3,1010.9,291.3,1.2,2.0,325.5,0.00,11.4,17.7,"19:52:00",1
"22/05/17","20:10",0.0,16.1,73.6,1011.2,297.2,1.6,2.7,329.6,0.00,11.4,17.8,"20:04:08",1
"22/05/17","20:20",0.0,15.8,74.3,1011.4,283.8,1.6,2.1,269.7,0.00,11.3,17.9,"20:17:28",1
"22/05/17","20:30",0.0,15.5,74.9,1011.2,291.0,1.5,2.6,283.8,0.00,11.1,17.7,"20:28:08",1
"22/05/17","20:40",0.0,15.2,75.4,1011.6,290.0,1.5,2.4,306.1,0.00,10.9,17.6,"20:39:52",1
"22/05/17","20:50",0.0,15.1,75.8,1011.6,296.8,1.5,2.4,311.8,0.00,10.9,17.5,"20:42:40",1
"22/05/17","21:00",0.0,14.9,76.6,1011.6,310.2,1.6,2.1,330.5,0.00,10.9,17.7,"20:52:00",1
"22/05/17","21:10",0.0,14.7,78.1,1012.1,317.4,1.8,2.8,306.7,0.00,11.0,17.7,"21:07:52",1
"22/05/17","21:20",0.0,14.7,78.9,1012.1,315.1,2.1,4.1,325.3,0.00,11.1,17.7,"21:15:52",1
"22/05/17","21:30",0.0,14.5,79.1,1012.1,309.8,1.5,2.5,336.5,0.00,11.0,17.7,"21:24:32",1
"22/05/17","21:40",0.0,13.9,80.0,1012.6,330.5,1.6,2.1,332.9,0.00,10.6,17.2,"21:32:56",1
"22/05/17","21:50",0.0,13.6,80.5,1012.3,302.8,1.2,2.6,318.5,0.00,10.4,17.6,"21:48:00",1
"22/05/17","22:00",0.0,13.6,80.5,1012.6,305.9,1.5,2.4,318.2,0.00,10.4,17.6,"21:52:26",1
"22/05/17","22:10",0.0,13.6,80.5,1012.8,318.3,1.1,1.8,324.2,0.00,10.4,17.3,"22:03:38",1
"22/05/17","22:20",0.0,13.5,80.5,1012.6,321.2,1.5,2.9,325.8,0.00,10.3,17.4,"22:16:16",1
"22/05/17","22:30",0.0,13.6,80.4,1012.8,312.7,1.2,2.7,337.0,0.00,10.3,17.3,"22:24:56",1
"22/05/17","22:40",0.0,13.2,80.4,1012.8,49.5,0.2,0.8,143.4,0.00,9.9,17.1,"22:36:06",1
"22/05/17","22:50",0.0,12.6,81.3,1013.0,276.1,0.8,1.9,319.7,0.00,9.5,17.3,"22:42:48",1
"22/05/17","23:00",0.0,12.7,82.4,1013.3,303.1,1.6,2.8,302.9,0.00,9.8,17.2,"22:55:36",1
"22/05/17","23:10",0.0,12.5,83.1,1013.3,305.5,1.6,2.4,316.1,0.00,9.8,17.1,"23:00:52",1
"22/05/17","23:20",0.0,12.3,84.0,1013.0,304.0,1.3,1.7,313.1,0.00,9.7,17.2,"23:13:38",1
"22/05/17","23:30",0.0,12.3,84.7,1013.3,311.3,1.8,3.1,308.2,0.00,9.8,17.0,"23:27:58",1
"22/05/17","23:40",0.0,12.7,84.8,1013.8,326.7,2.1,3.2,315.5,0.00,10.3,17.0,"23:30:58",1
"22/05/17","23:50",0.0,12.4,84.9,1013.3,327.4,1.7,2.7,334.7,0.00,10.0,17.1,"23:49:46",1
"22/05/17","24:00",0.0,12.2,84.8,1013.5,298.9,0.6,3.1,335.2,0.00,9.8,17.1,"23:50:08",1
